Flag for China Weather past 2 weeks in Guangzhou, China

Now
84 °F

Partly sunny.


Feels Like: 88 °F
Forecast: 72 / 89 °F
Wind: 6 mph from Southwest

Location: Canton Airport


UV Index: 7 (High)

Visibility: 4 mi


Pressure: 29.80 "Hg

Humidity: 62%

Dew point: 70 °F

Location of GuangzhouLocation

Historic Weather in Guangzhou

°F

Guangzhou temperature yesterday

Maximum temperature yesterday: 79 °F (at 1:00 PM)
Minimum temperature yesterday: 72 °F (at 3:30 AM)
Average temperature yesterday: 75 °F

Past Weeks' High & Low Weather Summary

 TemperatureHumidityPressure
High91 °F (Apr 13, 2:00 PM)100% (Apr 2, 4:30 PM)30.07 "Hg (Apr 2, 4:30 PM)
Low63 °F (Apr 5, 6:00 AM)48% (Apr 4, 3:00 PM)29.74 "Hg (Apr 2, 5:30 PM)
Average74 °F78%29.94 "Hg
* Reported Apr 2 2:00 PM — Apr 17 2:30 PM, Guangzhou, Weather by CustomWeather, © 2014

Note: Actual official high and low records may vary slightly from our data, if they occured in-between our weather recording intervals... More about our weather records

Advertising

Historic Weather Conditions — Data for Previous 24 hours

 ConditionsComfort  
Time TempWeatherWind HumidityBarometerVisibility
2:30 PM
Apr 17
84 °FPartly sunny.8 mph58%29.83 "Hg4 mi
2:00 PM84 °FPartly sunny.6 mph62%29.83 "Hg4 mi
1:30 PM84 °FPartly sunny.6 mph58%29.83 "Hg4 mi
1:00 PM84 °FPartly sunny.1 mph62%29.86 "Hg4 mi
12:30 PM84 °FPartly sunny.6 mph58%29.86 "Hg4 mi
12:00 PM82 °FPartly sunny.6 mph66%29.86 "Hg4 mi
11:30 AM82 °FPartly sunny.6 mph66%29.89 "Hg4 mi
11:00 AM82 °FPartly sunny.3 mph66%29.89 "Hg4 mi
10:30 AM81 °FScattered clouds.6 mph70%29.89 "Hg3 mi
10:00 AM81 °FPartly sunny.3 mph70%29.92 "Hg2 mi
9:30 AM79 °FFog.3 mph74%29.92 "Hg2 mi
9:00 AM77 °FFog.1 mph79%29.92 "Hg2 mi
8:30 AM75 °FFog.3 mph83%29.89 "Hg2 mi
8:00 AM75 °FFog.No wind83%29.89 "Hg2 mi
7:30 AM73 °FFog.1 mph89%29.89 "Hg2 mi
7:00 AM73 °FFog.No wind83%29.89 "Hg2 mi
6:30 AM73 °FFog.1 mph89%29.86 "Hg2 mi
6:00 AM73 °FFog.3 mph89%29.86 "Hg2 mi
5:30 AM73 °FFog.1 mph89%29.86 "Hg3 mi
5:00 AM73 °FFog.1 mph89%29.86 "Hg3 mi
4:30 AM73 °FFog.3 mph89%29.83 "Hg3 mi
4:00 AM73 °FFog.1 mph89%29.86 "Hg3 mi
3:30 AM73 °FFog.3 mph89%29.83 "Hg3 mi
3:00 AM73 °FFog.3 mph89%29.86 "Hg3 mi
2:30 AM73 °FFog.3 mph89%29.86 "Hg3 mi
2:00 AM73 °FMostly cloudy.3 mph89%29.86 "Hg4 mi
1:30 AM75 °FMostly cloudy.1 mph83%29.86 "Hg4 mi
1:00 AM75 °FMostly cloudy.1 mph83%29.86 "Hg4 mi
12:30 AM75 °FMostly cloudy.1 mph83%29.86 "Hg4 mi
12:00 AM75 °FPassing clouds.3 mph83%29.86 "Hg4 mi
11:30 PM
Apr 16
75 °FOvercast.3 mph83%29.89 "Hg4 mi
11:00 PM75 °FPassing clouds.3 mph83%29.89 "Hg4 mi
10:30 PM75 °FOvercast.1 mph83%29.89 "Hg5 mi
10:00 PM77 °FOvercast.3 mph79%29.89 "Hg5 mi
9:00 PM77 °FMostly cloudy.6 mph79%29.86 "Hg5 mi
8:30 PM77 °FMostly cloudy.8 mph74%29.86 "Hg5 mi
8:00 PM77 °FOvercast.6 mph74%29.86 "Hg4 mi
7:30 PM77 °FOvercast.3 mph79%29.83 "Hg4 mi
7:00 PM77 °FOvercast.6 mph74%29.83 "Hg4 mi
6:30 PM77 °FOvercast.6 mph74%29.83 "Hg4 mi
6:00 PM77 °FOvercast.8 mph74%29.83 "Hg4 mi
5:30 PM77 °FOvercast.6 mph79%29.80 "Hg3 mi
5:00 PM77 °FOvercast.3 mph79%29.83 "Hg4 mi
4:30 PM77 °FOvercast.6 mph79%29.83 "Hg4 mi
4:00 PM77 °FMore clouds than sun.8 mph74%29.83 "Hg4 mi
3:30 PM77 °FOvercast.6 mph79%29.83 "Hg4 mi
3:00 PM77 °FOvercast.6 mph74%29.83 "Hg4 mi
Weather by CustomWeather, © 2014

See weather overview